Regional Weather Roundup
Issued by NWS Newport/Morehead, NC

Current Version | Previous Version | Graphics & Text | Print | Product List | Glossary Off
Versions: 1 2 3 4 5 6 7 8 9 10 11 12 13 14 15 16 17 18 19 20 21 22 23 24 25 26 27 28 29 30 31 32 33 34 35 36 37 38 39 40 41 42 43 44 45 46 47 48 49 50

000
ASUS42 KMHX 290325
RWRMHX
WEATHER ROUNDUP FOR EASTERN NORTH CAROLINA
NATIONAL WEATHER SERVICE NEWPORT/MOREHEAD CITY NC
1100 PM EDT FRI AUG 28 2015

NOTE: "FAIR" INDICATES FEW OR NO CLOUDS BELOW 12,000 FEET
WITH NO SIGNIFICANT WEATHER AND/OR OBSTRUCTIONS TO VISIBILITY

NCZ015>017-031-032-045>047-102-103-290400-
NORTH COAST

CITY           SKY/WX    TMP DP  RH WIND       PRES   REMARKS
EDENTON        PTCLDY    67  62  83 NE5       30.19S
ELIZABETH CITY CLEAR     70  63  78 E5        30.19S
KITTY HAWK     PTCLDY    74  64  70 NE5       30.17S
MANTEO         PTCLDY    74  65  75 E10       30.18S

$$

NCZ045>047-081-094-103-104-290400-
CENTRAL COAST

CITY           SKY/WX    TMP DP  RH WIND       PRES   REMARKS
FRISCO         PTCLDY    76  66  71 NE8G17    30.16S
SWANQUARTER    NOT AVBL

$$

NCZ095-097-098-100-101-290400-
SOUTHERN COAST

CITY           SKY/WX    TMP DP  RH WIND       PRES   REMARKS
BEAUFORT       CLEAR     72  67  84 NE7       30.16R
CEDAR ISLAND   NOT AVBL
JACKSONVILLE   CLEAR     72  63  73 N5        30.17R
PINEY ISLAND   PTCLDY   N/A N/A N/A NE13      30.16S
WILMINGTON     CLEAR     72  66  81 NE9       30.15F


$$

NCZ011>013-027>030-043-044-078>080-089-090>093-098-290400-
COASTAL PLAIN

CITY           SKY/WX    TMP DP  RH WIND       PRES   REMARKS
AHOSKIE        CLEAR     63  58  85 CALM      30.20S
CLINTON        CLEAR     70  64  81 CALM      30.18F
ELIZABETHTOWN  CLEAR     70  64  80 CALM      30.18R
GOLDSBORO      PTCLDY    67  62  83 E2        30.17S
GREENVILLE     PTCLDY    68  63  83 CALM      30.20S
HAVELOCK       CLEAR     73  65  75 NE9       30.18R
KENANSVILLE      N/A     65  61  86 CALM      30.19F
KINSTON        PTCLDY    67  62  85 CALM      30.19S
NEW BERN       PTCLDY    71  63  75 E5        30.19R
RICHLANDS      CLEAR     64  59  82 N3        30.18S
ROCKY MOUNT    MOCLDY    68  61  78 CALM      30.20R
WASHINGTON     PTCLDY    66  63  88 CALM      30.19S
WHITEVILLE     PTCLDY    70  66  86 CALM      30.16S

$$

AMZ130-135-150-152-154-156-158-170-250-252-270-ANZ085-086-088-633-658-670-290400-
MARINE OBSERVATIONS

STATION/POSITION TIME  TEMP    WIND        PRES    WAVE   SWELL
                       AIR SEA DIR/SP/G            HT/PER HT/PER
                 (UTC) (F)     (DEG/KT/KT) (MB)    (FT/S) (FT/S)
CHESAPEAKE LIGHT 0300   76      80/  8/  9 1023.3
64 E VA BEACH    0250   76 79   60/ 10/ 12 1021.9    4/10   3/10
DUCK             NOT AVBL
2 E DUCK         0211      78                N/A     4/11   2/11
OREGON INLET     NOT AVBL
13E OREGON INLT  0300      78                N/A     5/10   2/11
HATTERAS CG      NOT AVBL
DIAMOND BUOY     0250   80 82   40/ 17/ 19 1020.6    5/11   3/11
CAPE LOOKOUT     0300   77      30/ 19/ 22 1020.8
BEAUFORT LAB     NOT AVBL
30 SE NEW RVR IN 0208   79 82   50/ 19/ 23 1021.1
30 SE NEW RVR IN 0225      82                N/A     5/ 6   2/11
27 SE WRIGHTSVLE 0300   75 82   50/ 17/ 19   N/A
5 SE WRIGHTSVLE  0208   79 82   70/ 17/ 23 1020.8
225 S CAPE HAT   0250   82 84  190/  8/ 10 1019.8    4/11   3/11
41 SE CHARLESTON 0250   82 84   50/ 14/ 17 1019.4    5/ 7   2/ 8

$$


USA.gov is the U.S. government's official web portal to all federal, state and local government web resources and services.